Date String (YYYY-MM-DD hh:mm:ss) UTC,Instrument flags,Ambient pressure (hPa),Sample flow (lpm),Bypass flow (lpm),Sample temperature (°C),Ambient temperature (°C),ASC tube jacket temperature (°C),LED temperature (°C),Box temperature (°C),Sample RH (%),Span deviation,Mass concentration (μg/m³),Mass concentration (μg/m³),Mass concentration (μg/m³)
DateTimeUTC,F1_M11,P_M11,Q1_M11,Q2_M11,T1_M11,T2_M11,T3_M11,T4_M11,T5_M11,U1_M11,ZSPAN_M11,X0_M11,X2_M11,X1_M11
2023-02-15 11:00:00,,0818.1,4.99,0.00,23.0,22.1,00.0,31.8,24.8,08.6,0000.0,0006.01,0002.26,0001.73
2023-02-15 11:01:00,,0818.0,5.01,0.00,23.0,21.6,00.0,31.8,24.6,08.6,0000.0,0006.43,0002.16,0001.72
2023-02-15 11:02:00,,0818.0,4.97,0.00,22.9,21.3,00.0,31.8,24.6,08.6,0000.0,0006.38,0002.15,0001.70
2023-02-15 11:03:00,,0818.0,5.00,0.00,22.9,21.1,00.0,31.8,24.4,08.7,0000.0,0006.39,0002.15,0001.68
2023-02-15 11:04:00,,0818.0,5.02,0.00,22.8,21.4,00.0,31.8,24.5,08.7,0000.0,0006.66,0002.14,0001.66
2023-02-15 11:05:00,,0818.0,5.01,0.00,22.9,22.3,00.0,31.8,24.8,08.6,0000.0,0006.74,0002.15,0001.63
2023-02-15 11:06:00,,0818.0,4.99,0.00,23.1,23.2,00.0,31.7,25.0,08.6,0000.0,0006.71,0002.14,0001.62
2023-02-15 11:07:00,,0818.0,4.98,0.00,23.1,23.0,00.0,31.8,25.0,08.5,0000.0,0005.12,0002.12,0001.60
2023-02-15 11:08:00,,0818.0,4.98,0.00,23.1,22.5,00.0,31.8,24.8,08.5,0000.0,0005.06,0002.11,0001.58
2023-02-15 11:09:00,,0818.0,5.01,0.00,23.0,22.0,00.0,31.8,24.7,08.6,0000.0,0005.11,0002.13,0001.59
2023-02-15 11:10:00,,0818.0,4.97,0.00,23.0,21.7,00.0,31.8,24.6,08.6,0000.0,0005.20,0002.13,0001.58
2023-02-15 11:11:00,,0818.0,5.01,0.00,22.9,21.4,00.0,31.8,24.6,08.6,0000.0,0004.88,0002.16,0001.58
2023-02-15 11:12:00,,0818.0,5.01,0.00,22.9,21.2,00.0,31.8,24.5,08.7,0000.0,0004.15,0002.15,0001.57
2023-02-15 11:13:00,,0818.0,5.00,0.00,22.9,21.0,00.0,31.8,24.5,08.7,0000.0,0004.09,0002.12,0001.55
2023-02-15 11:14:00,,0818.0,5.00,0.00,22.8,20.9,00.0,31.8,24.4,08.7,0000.0,0005.04,0002.09,0001.54
2023-02-15 11:15:00,,0818.0,5.02,0.00,22.8,21.6,00.0,31.7,24.6,08.7,0000.0,0004.91,0002.06,0001.54
2023-02-15 11:16:00,,0818.0,5.01,0.00,22.9,22.7,00.0,31.7,24.8,08.7,0000.0,0004.74,0002.03,0001.54
2023-02-15 11:17:00,,0818.0,5.01,0.00,23.0,23.2,00.0,31.7,25.0,08.6,0000.0,0004.65,0001.99,0001.52
2023-02-15 11:18:00,,0818.0,4.97,0.00,23.0,22.7,00.0,31.8,24.9,08.6,0000.0,0004.86,0001.98,0001.52
2023-02-15 11:19:00,,0818.0,4.98,0.00,23.0,22.2,00.0,31.8,24.8,08.5,0000.0,0004.94,0002.00,0001.52
2023-02-15 11:20:00,,0818.0,4.99,0.00,23.0,21.8,00.0,31.8,24.7,08.5,0000.0,0004.97,0002.00,0001.52
2023-02-15 11:21:00,,0818.0,5.00,0.00,22.9,21.5,00.0,31.8,24.6,08.5,0000.0,0005.06,0002.02,0001.52
2023-02-15 11:22:00,,0818.0,5.01,0.00,22.9,21.3,00.0,31.8,24.5,08.5,0000.0,0004.84,0001.97,0001.51
2023-02-15 11:23:00,,0818.0,5.01,0.00,22.8,21.1,00.0,31.8,24.4,08.6,0000.0,0004.77,0001.94,0001.50
2023-02-15 11:24:00,,0818.0,5.01,0.00,22.8,20.9,00.0,31.8,24.4,08.6,0000.0,0005.78,0001.96,0001.50
2023-02-15 11:25:00,,0818.0,5.00,0.00,22.8,21.5,00.0,31.7,24.5,08.6,0000.0,0005.67,0001.97,0001.49
2023-02-15 11:26:00,,0818.2,4.98,0.00,22.9,22.5,00.0,31.7,24.8,08.5,0000.0,0006.56,0002.01,0001.49
2023-02-15 11:27:00,,0818.4,5.02,0.00,23.0,23.3,00.0,31.7,25.0,08.5,0000.0,0006.51,0002.01,0001.50
2023-02-15 11:28:00,,0818.4,4.99,0.00,23.0,22.9,00.0,31.8,24.9,08.5,0000.0,0006.56,0002.05,0001.51
2023-02-15 11:29:00,,0818.4,4.99,0.00,23.0,22.5,00.0,31.8,24.8,08.5,0000.0,0006.50,0002.08,0001.51
2023-02-15 11:30:00,,0818.3,5.00,0.00,23.0,22.1,00.0,31.8,24.7,08.5,0000.0,0006.56,0002.05,0001.51
2023-02-15 11:31:00,,0818.2,4.99,0.00,23.0,21.7,00.0,31.8,24.7,08.5,0000.0,0006.75,0002.02,0001.49
2023-02-15 11:32:00,,0818.2,5.01,0.00,22.9,21.4,00.0,31.8,24.6,08.5,0000.0,0006.71,0001.98,0001.48
2023-02-15 11:33:00,,0818.2,4.99,0.00,22.9,21.2,00.0,31.8,24.5,08.5,0000.0,0006.95,0001.99,0001.48
2023-02-15 11:34:00,,0818.2,4.99,0.00,22.8,21.1,00.0,31.8,24.5,08.5,0000.0,0007.04,0002.02,0001.48
2023-02-15 11:35:00,,0818.2,4.99,0.00,22.8,20.9,00.0,31.8,24.4,08.6,0000.0,0006.14,0002.03,0001.49
2023-02-15 11:36:00,,0818.2,5.01,0.00,22.8,20.9,00.0,31.7,24.4,08.6,0000.0,0005.35,0002.07,0001.51
2023-02-15 11:37:00,,0818.2,5.02,0.00,22.8,21.7,00.0,31.7,24.6,08.6,0000.0,0004.21,0002.04,0001.50
2023-02-15 11:38:00,,0818.2,4.98,0.00,22.9,22.8,00.0,31.7,24.8,08.5,0000.0,0004.19,0002.03,0001.50
2023-02-15 11:39:00,,0818.3,5.02,0.00,23.0,23.2,00.0,31.7,25.0,08.5,0000.0,0004.11,0001.99,0001.49
2023-02-15 11:40:00,,0818.2,5.01,0.00,23.0,22.8,00.0,31.7,24.9,08.5,0000.0,0003.86,0001.93,0001.48
2023-02-15 11:41:00,,0818.2,5.01,0.00,23.0,22.3,00.0,31.8,24.8,08.5,0000.0,0003.92,0001.94,0001.49
2023-02-15 11:42:00,,0818.2,4.99,0.00,23.0,21.9,00.0,31.8,24.7,08.5,0000.0,0003.67,0001.96,0001.49
2023-02-15 11:43:00,,0818.3,4.99,0.00,22.9,21.6,00.0,31.8,24.6,08.5,0000.0,0003.46,0001.92,0001.50
2023-02-15 11:44:00,,0818.3,5.01,0.00,22.9,21.3,00.0,31.8,24.5,08.5,0000.0,0003.10,0001.88,0001.50
2023-02-15 11:45:00,,0818.3,4.98,0.00,22.9,21.2,00.0,31.8,24.5,08.6,0000.0,0003.08,0001.88,0001.51
2023-02-15 11:46:00,,0818.3,5.01,0.00,22.8,21.0,00.0,31.8,24.4,08.6,0000.0,0003.11,0001.86,0001.51
2023-02-15 11:47:00,,0818.3,5.00,0.00,22.8,20.9,00.0,31.7,24.4,08.6,0000.0,0003.11,0001.84,0001.51
2023-02-15 11:48:00,,0818.3,4.96,0.00,22.7,20.8,00.0,31.7,24.4,08.6,0000.0,0003.11,0001.83,0001.52
2023-02-15 11:49:00,,0818.3,5.02,0.00,22.7,21.4,00.0,31.7,24.5,08.6,0000.0,0003.23,0001.89,0001.52
2023-02-15 11:50:00,,0818.4,4.99,0.00,22.8,22.5,00.0,31.6,24.7,08.5,0000.0,0003.20,0001.89,0001.53
2023-02-15 11:51:00,,0818.4,5.05,0.00,23.0,23.2,00.0,31.6,24.9,08.5,0000.0,0003.18,0001.89,0001.54
2023-02-15 11:52:00,,0818.5,4.98,0.00,23.0,22.9,00.0,31.7,24.9,08.5,0000.0,0003.03,0001.89,0001.54
2023-02-15 11:53:00,,0818.6,5.01,0.00,23.0,22.4,00.0,31.7,24.8,08.5,0000.0,0003.00,0001.91,0001.54
2023-02-15 11:54:00,,0818.6,4.99,0.00,23.0,22.0,00.0,31.7,24.7,08.5,0000.0,0003.02,0001.92,0001.55
2023-02-15 11:55:00,,0818.5,5.00,0.00,22.9,21.7,00.0,31.8,24.6,08.5,0000.0,0003.14,0001.97,0001.54
2023-02-15 11:56:00,,0818.5,4.98,0.00,22.9,21.4,00.0,31.8,24.6,08.5,0000.0,0003.50,0001.99,0001.54
2023-02-15 11:57:00,,0818.6,5.04,0.00,22.8,21.2,00.0,31.7,24.5,08.5,0000.0,0003.41,0001.98,0001.53
2023-02-15 11:58:00,,0818.7,4.99,0.00,22.8,21.1,00.0,31.7,24.5,08.5,0000.0,0003.52,0002.00,0001.53
2023-02-15 11:59:00,,0818.7,4.98,0.00,22.8,21.0,00.0,31.7,24.4,08.5,0000.0,0003.54,0002.01,0001.53
